This demonstration page uses our WeatherBlox Daily Observations layout. Learn more.

Left ArrowRight Arrow

31.84235, -102.49876

Hourly Observations for September 25, 2022

Temp ( °F °C ) Dew Point ( °F °C ) Humidity (%) Winds ( mph kmh ) Pressure ( in mb ) Visibility ( mi km ) Precip ( " mm )
12:53 am 00:53 Clear 77 25 55 12.8 47 47 S 10 17 29.89 1012 10 16 0.00 0.00
1:53 am 01:53 Clear 75 23.9 56 13.3 51 51 SSW 9 15 29.88 1012 10 16 0.00 0.00
2:53 am 02:53 Clear 74 23.3 56 13.3 53 53 SSW 14 22 29.88 1012 10 16 0.00 0.00
3:53 am 03:53 Clear 73 22.8 57 13.9 57 57 SSW 8 13 29.89 1012 10 16 0.00 0.00
4:53 am 04:53 Clear 71 21.7 57 13.9 61 61 SSW 6 9 29.88 1012 10 16 0.00 0.00
5:53 am 05:53 Clear 70 21.1 57 13.9 63 63 S 6 9 29.89 1012 10 16 0.00 0.00
6:53 am 06:53 Clear 68 20 57 13.9 68 68 SE 5 7 29.91 1013 10 16 0.00 0.00
7:53 am 07:53 Sunny 65 18.3 57 13.9 76 76 ENE 6 9 29.94 1014 10 16 0.00 0.00
8:53 am 08:53 Sunny 71 21.7 58 14.4 63 63 ENE 5 7 29.96 1014 10 16 0.00 0.00
9:53 am 09:53 Sunny 76 24.4 58 14.4 54 54 SSE 12 19 29.97 1015 10 16 0.00 0.00
10:53 am 10:53 Sunny 79 26.1 59 15 50 50 SE 6 9 29.99 1016 10 16 0.00 0.00
11:53 am 11:53 Partly Cloudy 83 28.3 58 14.4 43 43 E 7 11 29.99 1016 10 16 0.00 0.00
12:53 pm 12:53 Mostly Cloudy 87 30.6 58 14.4 37 37 NE 13 20 29.99 1016 10 16 0.00 0.00
1:53 pm 13:53 Sunny 86 30 58 14.4 39 39 ENE 14 22 29.98 1015 10 16 0.00 0.00
2:53 pm 14:53 Mostly Sunny 85 29.4 56 13.3 37 37 NNE 10 17 29.97 1015 10 16 0.00 0.00
3:53 pm 15:53 Sunny 88 31.1 54 12.2 31 31 E 14 22 29.95 1014 10 16 0.00 0.00
4:53 pm 16:53 Mostly Sunny 87 30.6 56 13.3 35 35 ENE 16 26 29.94 1014 10 16 0.00 0.00
5:53 pm 17:53 Sunny 86 30 56 13.3 36 36 ENE 13 20 29.94 1014 10 16 0.00 0.00
6:53 pm 18:53 Sunny 86 30 55 12.8 35 35 E 12 19 29.95 1014 10 16 0.00 0.00
7:53 pm 19:53 Partly Cloudy 83 28.3 55 12.8 38 38 ENE 8 13 29.97 1015 10 16 0.00 0.00
8:53 pm 20:53 Mostly Cloudy 81 27.2 57 13.9 44 44 ESE 14 22 29.99 1016 10 16 0.00 0.00
9:53 pm 21:53 Mostly Clear 77 25 57 13.9 50 50 ESE 8 13 30.01 1016 10 16 0.00 0.00
10:53 pm 22:53 Clear 73 22.8 58 14.4 59 59 E 6 9 30.02 1017 10 16 0.00 0.00
11:53 pm 23:53 Clear 72 22.2 57 13.9 59 59 ENE 7 11 30.03 1017 10 16 0.00 0.00

Powered by AerisWeather